• In Belgien
  • Länderverzeichnis
  • Für 7 Tage
  • Wassertemperatur
  • Satellitenkarten
  • Wetterkarte
  • Widgets
  • user-avatar
    Anmelden

    Stündliche Wetter Quito

    Heute, 22 September, Freitag

    Zeit Temperatur Niederschläge Wind Luftdruck Luftfeuchtigkeit
    00:00 +21°C° 0 mm 1 m/S 622 mmHg 35%
    01:00 +20°C° 0 mm 1 m/S 622 mmHg 37%
    02:00 +20°C° 0 mm 1 m/S 622 mmHg 39%
    03:00 +19°C° 0 mm 1 m/S 622 mmHg 41%
    04:00 +19°C° 0 mm 1 m/S 622 mmHg 43%
    05:00 +20°C° 0 mm 1 m/S 622 mmHg 43%
    06:00 +21°C° 0 mm 1 m/S 623 mmHg 44%
    07:00 +20°C° 0 mm 2 m/S 623 mmHg 44%
    08:00 +25°C° 0 mm 2 m/S 624 mmHg 36%
    09:00 +28°C° 0 mm 3 m/S 625 mmHg 27%
    10:00 +32°C° 0 mm 4 m/S 626 mmHg 18%
    11:00 +33°C° 0 mm 4 m/S 626 mmHg 17%
    12:00 +34°C° 0 mm 4 m/S 625 mmHg 16%
    13:00 +35°C° 0 mm 3 m/S 625 mmHg 14%
    14:00 +35°C° 0 mm 3 m/S 625 mmHg 15%
    15:00 +35°C° 0 mm 3 m/S 624 mmHg 15%
    16:00 +34°C° 0 mm 2 m/S 623 mmHg 15%
    17:00 +31°C° 0 mm 2 m/S 623 mmHg 18%
    18:00 +28°C° 0 mm 1 m/S 622 mmHg 21%
    19:00 +26°C° 0 mm 1 m/S 622 mmHg 23%
    20:00 +25°C° 0 mm 1 m/S 622 mmHg 24%
    21:00 +25°C° 0 mm 1 m/S 623 mmHg 25%
    22:00 +25°C° 0 mm 1 m/S 623 mmHg 25%
    23:00 +24°C° 0 mm 1 m/S 623 mmHg 29%

    Morgen, 23 September, Samstag

    Zeit Temperatur Niederschläge Wind Luftdruck Luftfeuchtigkeit
    00:00 +23°C° 0 mm 1 m/S 623 mmHg 32%
    01:00 +22°C° 0 mm 1 m/S 623 mmHg 36%
    02:00 +22°C° 0 mm 1 m/S 622 mmHg 41%
    03:00 +21°C° 0 mm 1 m/S 622 mmHg 46%
    04:00 +20°C° 0 mm 1 m/S 622 mmHg 50%
    05:00 +21°C° 0 mm 1 m/S 623 mmHg 50%
    06:00 +22°C° 0 mm 1 m/S 623 mmHg 50%
    07:00 +23°C° 0 mm 1 m/S 624 mmHg 50%
    08:00 +26°C° 0 mm 2 m/S 625 mmHg 40%
    09:00 +29°C° 0 mm 3 m/S 626 mmHg 31%
    10:00 +34°C° 0 mm 3 m/S 626 mmHg 21%
    11:00 +34°C° 0 mm 3 m/S 626 mmHg 19%
    12:00 +35°C° 0 mm 3 m/S 625 mmHg 17%
    13:00 +36°C° 0 mm 4 m/S 624 mmHg 15%
    14:00 +36°C° 0 mm 3 m/S 624 mmHg 15%
    15:00 +36°C° 0 mm 3 m/S 624 mmHg 14%
    16:00 +35°C° 0 mm 3 m/S 623 mmHg 14%
    17:00 +32°C° 0 mm 2 m/S 623 mmHg 17%
    18:00 +29°C° 0 mm 2 m/S 622 mmHg 20%
    19:00 +26°C° 0 mm 1 m/S 622 mmHg 23%
    20:00 +26°C° 0 mm 1 m/S 623 mmHg 25%
    21:00 +25°C° 0 mm 1 m/S 623 mmHg 27%
    22:00 +25°C° 0 mm 2 m/S 624 mmHg 29%
    23:00 +24°C° 0 mm 2 m/S 623 mmHg 39%

    übermorgen, 24 September, Sonntag

    Zeit Temperatur Niederschläge Wind Luftdruck Luftfeuchtigkeit
    00:00 +21°C° 0 mm 2 m/S 623 mmHg 48%
    01:00 +20°C° 0 mm 2 m/S 622 mmHg 57%
    02:00 +20°C° 0 mm 2 m/S 622 mmHg 61%
    03:00 +19°C° 0 mm 2 m/S 622 mmHg 66%
    04:00 +19°C° 0 mm 2 m/S 621 mmHg 70%
    05:00 +20°C° 0 mm 2 m/S 622 mmHg 66%
    06:00 +21°C° 0 mm 2 m/S 623 mmHg 62%
    07:00 +23°C° 0 mm 2 m/S 624 mmHg 58%
    08:00 +26°C° 0 mm 2 m/S 625 mmHg 46%
    09:00 +30°C° 0 mm 2 m/S 626 mmHg 34%
    10:00 +34°C° 0 mm 3 m/S 627 mmHg 22%
    11:00 +35°C° 0 mm 3 m/S 626 mmHg 19%
    12:00 +35°C° 0 mm 3 m/S 626 mmHg 17%
    13:00 +36°C° 0 mm 3 m/S 625 mmHg 15%
    14:00 +35°C° 0 mm 3 m/S 624 mmHg 16%
    15:00 +35°C° 0 mm 3 m/S 624 mmHg 16%
    16:00 +34°C° 0 mm 2 m/S 623 mmHg 17%
    17:00 +31°C° 0 mm 2 m/S 623 mmHg 21%
    18:00 +28°C° 0 mm 2 m/S 623 mmHg 25%
    19:00 +26°C° 0 mm 2 m/S 622 mmHg 30%
    20:00 +25°C° 0 mm 2 m/S 622 mmHg 33%
    21:00 +24°C° 0 mm 2 m/S 623 mmHg 37%
    22:00 +23°C° 0 mm 2 m/S 623 mmHg 40%
    23:00 +21°C° 0 mm 2 m/S 622 mmHg 48%

    25 September, Montag

    Zeit Temperatur Niederschläge Wind Luftdruck Luftfeuchtigkeit
    00:00 +20°C° 0 mm 2 m/S 622 mmHg 55%
    01:00 +19°C° 0 mm 2 m/S 621 mmHg 63%
    02:00 +19°C° 0 mm 2 m/S 621 mmHg 65%
    03:00 +19°C° 0 mm 1 m/S 621 mmHg 68%
    04:00 +19°C° 0 mm 1 m/S 621 mmHg 71%
    05:00 +20°C° 0 mm 1 m/S 622 mmHg 66%
    06:00 +21°C° 0 mm 1 m/S 623 mmHg 62%
    07:00 +22°C° 0 mm 1 m/S 623 mmHg 57%
    08:00 +25°C° 0 mm 1 m/S 624 mmHg 46%
    09:00 +29°C° 0 mm 2 m/S 625 mmHg 35%
    10:00 +32°C° 0 mm 2 m/S 626 mmHg 24%
    11:00 +34°C° 0 mm 2 m/S 625 mmHg 21%
    12:00 +35°C° 0 mm 3 m/S 624 mmHg 17%
    13:00 +36°C° 0 mm 3 m/S 624 mmHg 14%
    14:00 +36°C° 0 mm 3 m/S 623 mmHg 13%
    15:00 +36°C° 0 mm 2 m/S 623 mmHg 13%
    16:00 +35°C° 0 mm 2 m/S 622 mmHg 12%
    17:00 +32°C° 0 mm 2 m/S 622 mmHg 16%
    18:00 +29°C° 0 mm 2 m/S 622 mmHg 19%
    19:00 +26°C° 0 mm 2 m/S 621 mmHg 23%
    20:00 +25°C° 0 mm 2 m/S 621 mmHg 30%
    21:00 +25°C° 0 mm 3 m/S 622 mmHg 37%
    22:00 +24°C° 0 mm 3 m/S 622 mmHg 45%
    23:00 +22°C° 0 mm 3 m/S 621 mmHg 50%

    26 September, Dienstag

    Zeit Temperatur Niederschläge Wind Luftdruck Luftfeuchtigkeit
    00:00 +21°C° 0 mm 3 m/S 621 mmHg 56%
    01:00 +20°C° 0 mm 3 m/S 621 mmHg 61%
    02:00 +19°C° 0 mm 3 m/S 621 mmHg 65%
    03:00 +18°C° 0 mm 2 m/S 621 mmHg 69%
    04:00 +18°C° 0 mm 2 m/S 620 mmHg 73%
    05:00 +18°C° 0 mm 2 m/S 621 mmHg 70%
    06:00 +19°C° 0 mm 2 m/S 622 mmHg 66%
    07:00 +20°C° 0 mm 2 m/S 623 mmHg 63%
    08:00 +25°C° 0 mm 2 m/S 624 mmHg 50%
    09:00 +28°C° 0 mm 2 m/S 624 mmHg 38%
    10:00 +32°C° 0 mm 1 m/S 625 mmHg 25%
    11:00 +33°C° 0 mm 1 m/S 625 mmHg 23%
    12:00 +35°C° 0 mm 1 m/S 624 mmHg 20%
    13:00 +36°C° 0 mm 1 m/S 624 mmHg 17%
    14:00 +34°C° 0 mm 1 m/S 623 mmHg 19%
    15:00 +33°C° 0 mm 1 m/S 622 mmHg 22%
    16:00 +31°C° 0 mm 2 m/S 621 mmHg 24%
    17:00 +30°C° 0 mm 2 m/S 621 mmHg 27%
    18:00 +28°C° 0 mm 2 m/S 621 mmHg 30%
    19:00 +27°C° 0 mm 2 m/S 622 mmHg 33%
    20:00 +26°C° 0,1 mm 2 m/S 621 mmHg 38%
    21:00 +24°C° 0,1 mm 2 m/S 621 mmHg 43%
    22:00 +23°C° 0,1 mm 2 m/S 621 mmHg 49%
    23:00 +21°C° 0 mm 2 m/S 621 mmHg 52%

    27 September, Mittwoch

    Zeit Temperatur Niederschläge Wind Luftdruck Luftfeuchtigkeit
    00:00 +21°C° 0 mm 2 m/S 621 mmHg 55%
    01:00 +20°C° 0 mm 3 m/S 620 mmHg 58%
    02:00 +20°C° 0 mm 2 m/S 620 mmHg 59%
    03:00 +19°C° 0 mm 2 m/S 621 mmHg 61%
    04:00 +19°C° 0 mm 2 m/S 621 mmHg 63%
    05:00 +21°C° 0 mm 1 m/S 621 mmHg 60%
    06:00 +21°C° 0 mm 1 m/S 622 mmHg 58%
    07:00 +22°C° 0 mm 1 m/S 623 mmHg 55%
    08:00 +25°C° 0 mm 1 m/S 624 mmHg 45%
    09:00 +29°C° 0 mm 1 m/S 625 mmHg 35%
    10:00 +33°C° 0 mm 1 m/S 626 mmHg 25%
    11:00 +34°C° 0 mm 1 m/S 626 mmHg 23%
    12:00 +36°C° 0 mm 1 m/S 625 mmHg 21%
    13:00 +37°C° 0 mm 1 m/S 625 mmHg 18%
    14:00 +35°C° 0 mm 1 m/S 624 mmHg 21%
    15:00 +32°C° 0 mm 2 m/S 623 mmHg 24%
    16:00 +30°C° 0 mm 2 m/S 622 mmHg 27%
    17:00 +29°C° 0,1 mm 2 m/S 622 mmHg 31%
    18:00 +27°C° 0,1 mm 2 m/S 622 mmHg 36%
    19:00 +25°C° 0,1 mm 2 m/S 622 mmHg 40%
    20:00 +24°C° 0,4 mm 2 m/S 622 mmHg 45%
    21:00 +23°C° 0,4 mm 2 m/S 622 mmHg 50%
    22:00 +21°C° 0,4 mm 2 m/S 622 mmHg 55%
    23:00 +20°C° 0,2 mm 2 m/S 622 mmHg 60%
    Mehr zeigen